Location: Fort Worth, Tx
(32.7431°N, 97.3695°W)
Time: 19:30:27
(UTC-04:00)

Vanguard 1 Rocket - Pass Details

Date: 14 September 2024
Orbit: 650 x 4218 km, 34.3° (Epoch: 11 October)

Event Time Altitude Azimuth Distance (km) Brightness Sun altitude
Exits shadow 05:03:21 52° 180° (S) 2,966 9.6 -38.1°
Maximum altitude 05:06:22 59° 144° (SE) 3,088 9.8 -37.6°
Drops below altitude 10° 05:28:11 10° 73° (ENE) 7,171 12.7 -33.8°
Sets 05:34:30 0° 71° (ENE) 8,404 13.4 -32.6°
